Change the Weather History Date:

Sunday, March 23, 2014

  Actual Average Record
Temperature  
Mean Temperature 26 °F 37 °F  
Max Temperature 37 °F 51 °F 78 °F (1963)
Min Temperature 14 °F 24 °F -4 °F (1965)
Degree Days  
Heating Degree Days 39 28  
Month to date heating degree days 751 731  
Since 1 July heating degree days 6354 6096  
Cooling Degree Days 0 0  
Month to date cooling degree days 0 0  
Year to date cooling degree days 0 0  
Moisture  
Dew Point 15 °F    
Average Humidity 66    
Maximum Humidity 84    
Minimum Humidity 47    
Precipitation  
Precipitation 0.00 in 0.04 in 0.70 in (2009)
Month to date precipitation 0.45 0.95  
Year to date precipitation 0.93 1.73  
Sea Level Pressure  
Sea Level Pressure 30.32 in    
Wind  
Wind Speed 7 mph (SE)    
Max Wind Speed 18 mph    
Max Gust Speed 24 mph    
Visibility 10 miles    
Events      
T = Trace of Precipitation, MM = Missing Value Source: NWS Daily Summary

Daily Weather History Graph

Daily Weather History Graph

Search for Another Location

Airport or City:

Trip Planner

Search our weather history database for the weather conditions in past years. The results will help you decide how hot, cold, wet, or windy it might be!

Date:

Astronomy

Mar. 23, 2014 Rise Set
Actual Time 6:44 AM MDT 7:02 PM MDT
Civil Twilight 6:15 AM MDT 7:31 PM MDT
Nautical Twilight 5:41 AM MDT 8:05 PM MDT
Astronomical Twilight 5:06 AM MDT 8:40 PM MDT
Moon 1:31 AM MDT (3/23) 11:17 AM MDT (3/23)
Length of Visible Light 13h 16m
Length of Day
12h 18m
Waning Gibbous, 54% of the Moon is Illuminated
Mar 23
Waning Gibbous
Mar 23
Last Quarter
Mar 30
New
Apr 7
First Quarter
Apr 15
Full

Hourly Weather History & Observations

Time (MDT) Temp. Windchill Dew Point Humidity Pressure Visibility Wind Dir Wind Speed Gust Speed Precip Events Conditions
12:55 AM 19.0 °F - 10.9 °F 71% 30.56 in 10.0 mi Calm Calm - N/A   Overcast
1:55 AM 19.0 °F - 12.0 °F 74% 30.53 in 10.0 mi Calm Calm - N/A   Overcast
2:55 AM 16.0 °F 8.8 °F 9.0 °F 74% 30.50 in 10.0 mi South 4.6 mph - N/A   Partly Cloudy
3:55 AM 15.1 °F 7.7 °F 8.1 °F 74% 30.48 in 10.0 mi SSE 4.6 mph - N/A   Clear
4:55 AM 14.0 °F 5.1 °F 8.1 °F 77% 30.46 in 10.0 mi SE 5.8 mph - N/A   Clear
5:30 AM 15.8 °F 5.1 °F 8.6 °F 73% 30.35 in 10.0 mi SE 8.1 mph - N/A   Mostly Cloudy
5:44 AM 15.8 °F 4.2 °F 8.6 °F 73% 30.35 in 10.0 mi SE 9.2 mph - N/A   Scattered Clouds
5:55 AM 15.1 °F 4.2 °F 9.0 °F 77% 30.44 in 10.0 mi SE 8.1 mph - N/A   Partly Cloudy
6:55 AM 15.1 °F 4.2 °F 10.0 °F 80% 30.42 in 10.0 mi ESE 8.1 mph - N/A   Clear
7:55 AM 19.0 °F 11.1 °F 12.0 °F 74% 30.40 in 10.0 mi ESE 5.8 mph - N/A   Clear
8:55 AM 23.0 °F 15.8 °F 15.1 °F 72% 30.38 in 10.0 mi SE 5.8 mph - N/A   Clear
9:55 AM 28.0 °F 19.3 °F 16.0 °F 61% 30.35 in 10.0 mi South 9.2 mph - N/A   Scattered Clouds
10:55 AM 32.0 °F 22.1 °F 17.1 °F 54% 30.30 in 10.0 mi South 13.8 mph - N/A   Overcast
11:55 AM 36.0 °F 26.3 °F 18.0 °F 48% 30.26 in 10.0 mi SSE 16.1 mph - N/A   Overcast
12:55 PM 37.0 °F 27.4 °F 19.0 °F 48% 30.22 in 10.0 mi SSE 17.3 mph 23.0 mph N/A   Overcast
1:55 PM 36.0 °F 26.0 °F 19.9 °F 52% 30.19 in 10.0 mi SSE 17.3 mph 21.9 mph N/A   Overcast
2:55 PM 36.0 °F 28.0 °F 19.9 °F 52% 30.17 in 10.0 mi SSE 11.5 mph - N/A   Overcast
3:55 PM 35.1 °F 27.4 °F 21.0 °F 57% 30.17 in 10.0 mi SSE 10.4 mph - N/A   Overcast
4:55 PM 36.0 °F 30.3 °F 21.0 °F 55% 30.16 in 10.0 mi SE 6.9 mph - N/A   Overcast
5:55 PM 36.0 °F - 21.0 °F 55% 30.17 in 10.0 mi Calm Calm - N/A   Mostly Cloudy
6:55 PM 34.0 °F 28.8 °F 21.0 °F 59% 30.22 in 10.0 mi ENE 5.8 mph - N/A   Overcast
7:55 PM 30.9 °F 24.3 °F 19.0 °F 61% 30.24 in 10.0 mi NE 6.9 mph - N/A   Mostly Cloudy
8:55 PM 26.1 °F 19.4 °F 19.0 °F 75% 30.26 in 10.0 mi ENE 5.8 mph - N/A   Partly Cloudy
9:55 PM 23.0 °F 15.8 °F 18.0 °F 81% 30.27 in 10.0 mi East 5.8 mph - N/A   Clear
10:55 PM 21.9 °F 15.7 °F 18.0 °F 85% 30.27 in 10.0 mi NE 4.6 mph - N/A   Clear
11:55 PM 19.9 °F - 16.0 °F 85% 30.29 in 10.0 mi Calm Calm - N/A   Mostly Cloudy